Voltar ao catálogo

STARLINK-34442

AtivoComunicaçõesVLEO
NORAD 64672·PAYLOAD·🇺🇸 United States

Lançado Jun 28, 2025 de Cape Canaveral Space Force Station

Loading…

Próximas Passagens (próximas 24 horas)

TLE

AtualizadoSource: CelesTrak SupGP

Época: Sep 15, 2026, 02:48 UTC

1 64672C 25139J   26258.11715278  .00050463  00000+0  14898-2 0  2587
2 64672  53.1585 322.7962 0001489 109.8664  46.4066 15.34390223    10

Acompanhe STARLINK-34442 em tempo real com AllMySat

Download on the App Store